Flag for Brazil Weather past 2 weeks in Rio de Janeiro, Rio de Janeiro, Brazil

Now
82 °F

Sunny.


Feels Like: 84 °F
Forecast: 68 / 85 °F
Wind: 6 mph from North

Location: Rio De Janeiro Airport

Current Time: Jul 24, 2014 at 4:13:48 PM

Latest Report: Jul 24, 2014 at 3:00 PM


Visibility: 10 mi

Pressure: 29.89 "Hg

Humidity: 55%

Dew point: 64 °F

Location of Rio de JaneiroLocation

Historic Weather in Rio de Janeiro — Graph

°F

Rio de Janeiro temperature yesterday

Maximum temperature yesterday: 81 °F (at 1:00 PM)
Minimum temperature yesterday: 72 °F (at 6:00 PM)
Average temperature yesterday: 75 °F

Past Weeks' High & Low Weather Summary

 TemperatureHumidityPressure
High88 °F (Jul 18, 12:00 PM)100% (Jul 11, 12:00 AM)30.36 "Hg (Jul 11, 12:00 AM)
Low64 °F (Jul 13, 3:00 AM)35% (Jul 14, 2:00 PM)29.89 "Hg (Jul 24, 1:00 PM)
Average72 °F73%30.17 "Hg
* Reported Jul 9 3:00 PM — Jul 24 3:00 PM, Rio de Janeiro, Weather by CustomWeather, © 2014

Note: Actual official high and low records may vary slightly from our data, if they occured in-between our weather recording intervals... More about our weather records

Advertising

Rio de Janeiro weather history for previous 24 hours

 ConditionsComfort  
Time TempWeatherWind HumidityBarometerVisibility
3:00 PM
Jul 24
82 °FSunny.6 mph55%29.89 "Hg10 mi
2:00 PM84 °FSunny.6 mph45%29.89 "Hg10 mi
1:00 PM84 °FSunny.7 mph37%29.89 "Hg10 mi
12:00 PM81 °FSunny.6 mph54%29.95 "Hg10 mi
11:00 AM81 °FSunny.6 mph51%29.98 "Hg10 mi
10:00 AM79 °FSunny.7 mph58%30.01 "Hg10 mi
9:00 AM79 °FSunny.10 mph51%30.01 "Hg10 mi
8:00 AM72 °FSunny.6 mph73%30.01 "Hg10 mi
7:00 AM70 °FSunny.1 mph73%30.01 "Hg10 mi
6:00 AM70 °FSunny.1 mph73%29.98 "Hg10 mi
11:00 PM
Jul 23
72 °FClear.2 mph65%30.04 "Hg10 mi
10:00 PM72 °FClear.3 mph65%30.04 "Hg10 mi
9:00 PM73 °FClear.1 mph61%30.01 "Hg10 mi
8:00 PM73 °FClear.2 mph61%30.01 "Hg10 mi
7:00 PM73 °FClear.5 mph61%30.01 "Hg10 mi
6:00 PM72 °FClear.8 mph69%30.01 "Hg10 mi
5:00 PM75 °FClear.9 mph65%30.01 "Hg10 mi
4:00 PM75 °FSunny.9 mph69%30.01 "Hg10 mi
Weather by CustomWeather, © 2014

See weather overviewHow to use our weather pages